Weather History for Pinedale, WY

Change the Weather History Date:

Friday, November 18, 2011

  Actual Average (KBPI) Record (KBPI)
Temperature  
Mean Temperature 26 °F 22 °F  
Max Temperature 33 °F 36 °F 59 °F (2008)
Min Temperature 20 °F 9 °F -10 °F (1980)
Degree Days  
Heating Degree Days 38 43  
Month to date heating degree days 684  
Since 1 July heating degree days 2264  
Cooling Degree Days 0 0  
Month to date cooling degree days 0  
Year to date cooling degree days 35  
Moisture  
Dew Point 24 °F    
Average Humidity 88    
Maximum Humidity 100    
Minimum Humidity 70    
Precipitation  
Precipitation 0.00 in 0.00 in 0.30 in (1996)
Month to date precipitation 0.13  
Year to date precipitation 6.10  
Sea Level Pressure  
Sea Level Pressure 29.58 in    
Wind  
Wind Speed 9 mph (West)    
Max Wind Speed 20 mph    
Max Gust Speed 28 mph    
Visibility 7 miles    
Events Snow    
T = Trace of Precipitation, MM = Missing Value Source: NWS Daily Summary

Daily Weather History Graph

Daily Weather History Graph

Search for Another Location

Airport:

Trip Planner

Search our weather history database for the weather conditions in past years. The results will help you decide how hot, cold, wet, or windy it might be!

Date:

Astronomy

Nov. 18, 2011 Rise Set
Actual Time 7:14 AM MST 4:53 PM MST
Civil Twilight 6:43 AM MST 5:24 PM MST
Nautical Twilight 6:09 AM MST 5:58 PM MST
Astronomical Twilight 5:35 AM MST 6:32 PM MST
Moon No Moon Rise 12:51 PM MST (11/18)
Length of Visible Light 10h 40m
Length of Day
9h 39m
Waning Gibbous, 48% of the Moon is Illuminated
Nov 18
Waning Gibbous
Nov 24
New
Dec 2
First Quarter
Dec 10
Full
Dec 17
Last Quarter

Hourly Weather History & Observations

Time (MST) Temp. Windchill Dew Point Humidity Pressure Visibility Wind Dir Wind Speed Gust Speed Precip Events Conditions
12:15 AM 23.2 °F 16.0 °F 20.5 °F 89% 29.65 in 10.0 mi ESE 5.8 mph - N/A   Scattered Clouds
12:35 AM 23.9 °F 16.8 °F 20.7 °F 87% 29.64 in 10.0 mi East 5.8 mph - N/A   Clear
12:55 AM 25.0 °F 19.3 °F 21.2 °F 86% 29.64 in 10.0 mi SE 4.6 mph - N/A   Mostly Cloudy
1:15 AM 33.8 °F 22.5 °F 28.6 °F 81% 29.62 in 10.0 mi SW 19.6 mph 27.6 mph N/A   Overcast
1:35 AM 33.8 °F 22.8 °F 29.7 °F 85% 29.61 in 7.0 mi SW 18.4 mph 27.6 mph N/A Snow Light Snow
1:55 AM 33.8 °F 23.9 °F 29.3 °F 84% 29.59 in 10.0 mi SSW 15.0 mph 26.5 mph N/A   Overcast
2:15 AM 33.8 °F 23.2 °F 29.3 °F 84% 29.61 in 4.0 mi SSW 17.3 mph 24.2 mph N/A Snow Light Snow
2:35 AM 33.1 °F 22.6 °F 30.9 °F 92% 29.61 in 4.0 mi SW 16.1 mph 27.6 mph N/A Snow Light Snow
2:55 AM 32.0 °F 20.8 °F 31.6 °F 99% 29.61 in 2.5 mi SW 17.3 mph 23.0 mph N/A Snow Light Snow
3:15 AM 32.0 °F 23.6 °F 31.5 °F 98% 29.61 in 2.0 mi SW 10.4 mph - N/A Snow Light Snow
3:35 AM 32.0 °F 24.2 °F 31.1 °F 96% 29.60 in 10.0 mi SW 9.2 mph - N/A   Overcast
3:55 AM 31.1 °F 25.4 °F 30.9 °F 99% 29.61 in 1.5 mi WNW 5.8 mph - N/A Snow Light Snow
4:35 AM 30.6 °F 25.8 °F 30.2 °F 99% 29.61 in 7.0 mi WNW 4.6 mph - N/A Snow Light Snow
4:55 AM 30.2 °F 26.7 °F 30.2 °F 100% 29.61 in 1.2 mi West 3.5 mph - N/A Snow Light Snow
5:15 AM 30.2 °F 26.7 °F 30.2 °F 100% 29.61 in 1.2 mi NW 3.5 mph - N/A Snow Light Snow
5:35 AM 29.8 °F 20.3 °F 30.0 °F 100% 29.61 in 0.2 mi West 11.5 mph 17.3 mph N/A Snow Snow
5:55 AM 29.8 °F 22.2 °F 30.0 °F 100% 29.61 in 0.8 mi West 8.1 mph - N/A Snow Snow
6:15 AM 29.7 °F 21.3 °F 29.8 °F 100% 29.61 in 1.2 mi West 9.2 mph - N/A Snow Light Snow
6:35 AM 29.3 °F 20.2 °F 28.6 °F 97% 29.61 in 4.0 mi West 10.4 mph - N/A Snow Light Snow
6:55 AM 28.8 °F 20.9 °F 27.9 °F 96% 29.61 in 10.0 mi WNW 8.1 mph - N/A Snow Light Snow
7:15 AM 28.0 °F 20.8 °F 28.0 °F 100% 29.61 in 0.8 mi WNW 6.9 mph - N/A Snow Light Snow
7:35 AM 27.9 °F 20.6 °F 28.0 °F 100% 29.61 in 0.8 mi West 6.9 mph - N/A Snow Light Snow
7:55 AM 27.9 °F 21.5 °F 28.0 °F 100% 29.61 in 0.8 mi WNW 5.8 mph - N/A Snow Light Snow
8:35 AM 28.0 °F 20.8 °F 27.0 °F 96% 29.61 in 1.8 mi WNW 6.9 mph - N/A Snow Light Snow
8:55 AM 28.0 °F 20.8 °F 26.8 °F 95% 29.61 in 5.0 mi WNW 6.9 mph - N/A   Overcast
9:15 AM 28.4 °F 20.4 °F 26.8 °F 94% 29.61 in 10.0 mi WNW 8.1 mph - N/A   Overcast
9:35 AM 28.8 °F 20.2 °F 24.4 °F 84% 29.61 in 7.0 mi West 9.2 mph - N/A   Overcast
9:55 AM 28.8 °F 21.7 °F 23.9 °F 82% 29.59 in 10.0 mi WNW 6.9 mph - N/A   Overcast
10:35 AM 28.4 °F 17.5 °F 24.1 °F 84% 29.59 in 10.0 mi WNW 13.8 mph - N/A   Overcast
10:55 AM 28.0 °F 17.5 °F 24.8 °F 88% 29.60 in 7.0 mi WNW 12.7 mph - N/A Snow Light Snow
11:15 AM 27.9 °F 15.9 °F 21.9 °F 78% 29.59 in 10.0 mi WNW 16.1 mph 21.9 mph N/A   Overcast
11:35 AM 28.2 °F 16.8 °F 21.9 °F 77% 29.58 in 10.0 mi West 15.0 mph - N/A   Overcast
11:55 AM 28.2 °F 18.3 °F 22.1 °F 78% 29.57 in 10.0 mi West 11.5 mph - N/A   Overcast
12:35 PM 28.2 °F 20.2 °F 21.0 °F 74% 29.56 in 10.0 mi West 8.1 mph - N/A   Overcast
12:55 PM 28.4 °F 19.7 °F 21.0 °F 74% 29.56 in 10.0 mi West 9.2 mph - N/A   Overcast
1:15 PM 28.4 °F 20.4 °F 19.8 °F 70% 29.56 in 10.0 mi West 8.1 mph 16.1 mph N/A   Overcast
1:35 PM 27.7 °F 18.8 °F 19.2 °F 71% 29.55 in 10.0 mi West 9.2 mph - N/A   Overcast
1:55 PM 28.4 °F 19.7 °F 20.1 °F 71% 29.55 in 10.0 mi West 9.2 mph - N/A   Overcast
2:15 PM 27.3 °F 17.7 °F 18.7 °F 70% 29.55 in 10.0 mi WNW 10.4 mph - N/A   Overcast
2:35 PM 26.6 °F 17.5 °F 18.7 °F 72% 29.54 in 10.0 mi WNW 9.2 mph - N/A   Overcast
2:55 PM 26.6 °F 16.8 °F 18.9 °F 73% 29.54 in 10.0 mi WNW 10.4 mph - N/A   Overcast
3:15 PM 25.9 °F 16.0 °F 18.5 °F 74% 29.54 in 10.0 mi WNW 10.4 mph 16.1 mph N/A   Overcast
3:35 PM 23.9 °F 12.9 °F 20.3 °F 86% 29.55 in 2.0 mi WNW 11.5 mph - N/A Snow Light Snow
3:55 PM 23.4 °F 13.5 °F 21.9 °F 94% 29.56 in 1.8 mi WNW 9.2 mph - N/A Snow Light Snow
4:15 PM 23.5 °F 15.4 °F 22.1 °F 94% 29.55 in 2.0 mi NNW 6.9 mph - N/A Snow Light Snow
4:55 PM 22.1 °F 13.7 °F 20.8 °F 95% 29.55 in 7.0 mi NNW 6.9 mph - N/A   Overcast
5:15 PM 21.9 °F 14.5 °F 20.3 °F 93% 29.54 in 10.0 mi NW 5.8 mph - N/A   Overcast
5:35 PM 21.9 °F 13.4 °F 20.3 °F 93% 29.53 in 10.0 mi NW 6.9 mph - N/A   Overcast
5:55 PM 21.7 °F 17.0 °F 20.1 °F 93% 29.53 in 10.0 mi NW 3.5 mph - N/A   Overcast
6:15 PM 21.0 °F - 19.6 °F 94% 29.53 in 10.0 mi Calm Calm - N/A   Overcast
6:55 PM 20.3 °F 15.4 °F 19.4 °F 96% 29.51 in 10.0 mi SW 3.5 mph - N/A   Overcast
7:15 PM 20.1 °F 12.3 °F 19.2 °F 96% 29.50 in 10.0 mi WSW 5.8 mph - N/A   Overcast
7:55 PM 21.0 °F 14.6 °F 18.0 °F 88% 29.50 in 10.0 mi South 4.6 mph - N/A   Overcast
8:15 PM 22.1 °F 15.9 °F 16.5 °F 79% 29.51 in 10.0 mi SSW 4.6 mph - N/A   Overcast
8:35 PM 22.1 °F 14.7 °F 17.1 °F 81% 29.51 in 10.0 mi SSW 5.8 mph - N/A   Overcast
8:55 PM 21.6 °F 16.8 °F 17.6 °F 85% 29.51 in 10.0 mi SSW 3.5 mph - N/A   Overcast
9:15 PM 21.2 °F 14.9 °F 18.7 °F 90% 29.53 in 10.0 mi SSW 4.6 mph - N/A   Overcast
9:35 PM 21.2 °F 11.7 °F 19.4 °F 93% 29.51 in 10.0 mi SW 8.1 mph - N/A   Overcast
9:55 PM 21.6 °F 11.3 °F 19.4 °F 91% 29.53 in 10.0 mi SW 9.2 mph - N/A Snow Light Snow
10:15 PM 21.6 °F 13.0 °F 19.9 °F 93% 29.54 in 5.0 mi SW 6.9 mph - N/A Snow Light Snow
10:35 PM 21.2 °F 11.7 °F 19.8 °F 94% 29.53 in 5.0 mi SSW 8.1 mph - N/A Snow Light Snow
10:55 PM 21.0 °F 14.6 °F 19.4 °F 93% 29.53 in 10.0 mi SW 4.6 mph - N/A   Overcast
11:15 PM 20.8 °F - 19.2 °F 93% 29.53 in 10.0 mi Calm Calm - N/A   Overcast
11:35 PM 20.3 °F - 19.4 °F 96% 29.54 in 10.0 mi Calm Calm - N/A   Overcast
11:55 PM 20.7 °F 15.8 °F 18.9 °F 93% 29.54 in 10.0 mi NE 3.5 mph - N/A   Overcast